Location: De Greiden
(52.9496°N, 5.9137°E)
Time: 01:12:32
(UTC+00:00)

Cosmos-2242 - Pass Details

Date: 24 January 2021
Orbit: 591 x 616 km, 82.5° (Epoch: 26 February)

Event Time Altitude Azimuth Distance (km) Brightness Sun altitude
Rises 17:48:40 0° 354° (N) 2,848 6.4 -15.1°
Reaches altitude 10° 17:51:01 10° 2° (N) 1,944 5.5 -15.4°
Maximum altitude 17:55:02 38° 71° (ENE) 923 3.4 -16.0°
Drops below altitude 10° 17:59:03 10° 141° (SE) 1,941 5.3 -16.6°
Enters shadow 17:59:05 10° 141° (SE) 1,955 5.3 -16.6°
